Погода в Земетчино

Россия / Пензенская область     53°29′45″N   42°36′52″E
темп.,
°C
ветер,
м/с
пор.,
м/с
влажн.,
%
обл.,
%
осадки,
мм/ч
давл.,
гПа
погр.,
м
11 апреля, вс
вс1100:00+3с3588100 0.0 1026100
03:00+1с388578 0.0 1027165
06:00+1ссв39866 0.0 1028206
09:00+6ссв5959100 0.0 1029427
12:00+10св6843100 0.0 1029762
15:00+11ссв6841100 0.0 1029852
18:00+9св61053100 0.0 1030521
21:00+7св51280100 0.5 1030458
12 апреля, пн
пн1200:00+6св51290100 0.2 1030415
03:00+5св51194100 0.2 1031319
06:00+5св51196100 0.0 1030347
09:00+9всв698397 0.0 1030405
12:00+15в5763100 0.0 1029634
15:00+18вюв564990 0.0 1028920
18:00+17в495763 0.0 1028187
21:00+12юв411725 0.0 1029182
13 апреля, вт
вт1300:00+10юв4118097 0.0 1029178
03:00+9юв41084100 0.0 1029155
06:00+8юв4107673 0.0 1029172
09:00+13юв5105466 0.0 1029355
12:00+18ююв683860 0.0 1028916
15:00+20ююв683229 0.0 10271829
18:00+17ююв36447 0.0 1026118
21:00+12ююв411570 0.0 1027188
14 апреля, ср
ср1400:00+10ююв49650 0.0 1027133
03:00+8юв35675 0.0 102671
06:00+7юв37724 0.0 102693
09:00+13юв585413 0.0 1025323
12:00+18юв5639100 0.0 10241027
15:00+19юв563387 0.0 10221513
18:00+17вюв354472 0.0 1021116
21:00+12юв3757100 0.0 1021113
15 апреля, чт
чт1500:00+11юв3462100 0.0 102053
03:00+9юв3466100 0.0 102059
06:00+8юв356867 0.0 101987
09:00+13юв4652100 0.0 1018312
12:00+18юв4539100 0.0 10171124
15:00+19юв44336 0.0 10151829
18:00+17в2345100 0.0 101358
21:00+14в3655100 0.0 1013127